sat.trackr.live / text

‹ back to catalog

STARLINK-31774

NORAD 59622 · 2024-080X

PAYLOAD ACTIVE UNKNOWN

§ Identity

Operator
Country
US
Launch date
2024-04-28
Launch site
AFETR
Launch vehicle
Mass (kg)
RCS (m²)

Purposes: comms

External: N2YO · Heavens-Above · Gunter

§ Orbital elements

Epoch: 2026-05-24T22:42:08.817696Z

Period
94.27 min
Inclination
43.0010°
Eccentricity
0.0000997
Mean motion
15.27583378 rev/d
Perigee alt
482.4 km
Apogee alt
483.7 km
Semi-major
6,861.2 km
B*
5.4241e-5
RAAN
323.9212°
Arg perigee
305.9169°
Mean anomaly
54.1590°
Rev number
11,623

§ Raw data

STARLINK-317741 59622U 24080X   26144.94593539  .00001231  00000+0  54241-4 0  99982 59622  43.0010 323.9212 0000997 305.9169  54.1590 15.27583378116230

JSON: /api/v1/satellites/59622 · /tle

For live sub-satellite position, see the globe view (requires WebGL).

§ Visibility from observer

Set your observer location to see the next 7 days of passes ≥ 10°. The values pass through the URL so the page stays shareable.

No JS? Fill the form by hand. The geolocation button needs JavaScript.